Probability
0 0 0 0 0 0 0 0 0 0 0 0 0 1 3 5 9 16 24 29 28 27 25 22 20 21 26 31 35 37 37 35 32 27 18 11 8 8 6 4 3 1 2 4
0 0 0 0 0 0 0 0 0 0 0 0 1 2 3 5 8 12 19 24 25 24 23 21 20 20 24 28 31 33 34 34 33 29 22 15 9 5 4 3 2 1 2 3
0 0 0 0 0 0 0 0 0 0 0 0 1 1 2 3 5 6 9 12 15 17 17 17 18 18 21 23 25 25 26 27 28 28 27 21 12 5 2 1 1 1 1 3
0 0 0 0 0 0 0 0 0 0 0 0 0 0 1 1 2 2 2 3 6 9 11 12 15 17 19 19 18 17 17 18 19 22 26 24 16 7 2 0 0 0 0 1
0 0 0 0 0 0 0 0 0 0 0 0 0 0 0 0 1 1 1 2 3 5 7 8 11 15 17 15 15 15 16 16 16 17 19 19 14 8 3 1 1 0 0 0
0 0 0 0 0 0 0 0 0 0 0 0 0 0 0 0 0 1 3 4 5 5 5 5 7 11 14 14 15 17 18 18 16 13 12 11 8 6 4 3 2 1 0 0
0 0 0 0 0 0 0 0 0 0 0 0 0 0 0 0 1 3 5 6 6 6 4 4 5 8 11 12 14 16 17 16 13 9 8 6 5 5 4 3 2 1 0 0
0 0 0 0 0 0 0 0 0 0 0 0 0 0 0 1 2 4 5 4 5 5 5 4 4 6 7 8 9 12 13 11 8 5 4 3 3 3 3 2 1 0 0 0
0 0 0 0 0 0 0 0 0 0 0 0 0 0 0 1 2 3 2 2 2 4 4 3 3 4 4 4 5 6 7 5 3 2 1 1 1 1 1 1 0 0 0 0
0 0 0 0 0 0 0 0 0 0 0 0 0 0 0 1 1 1 0 0 2 3 3 3 3 3 3 3 3 2 2 1 1 0 0 0 0 0 0 0 0 0 0 0
0 0 0 0 0 0 0 0 0 0 0 0 0 0 0 0 0 0 0 0 1 2 2 2 2 2 2 2 1 1 0 0 0 0 0 0 0 0 0 0 0 0 0 0
0 0 0 0 0 0 0 0 0 0 0 0 0 0 0 0 0 0 0 0 0 1 1 1 1 1 1 1 0 0 0 0 0 0 0 0 0 0 0 0 0 0 0 0
0 0 0 0 0 0 0 0 0 0 0 0 0 0 0 0 0 0 0 0 0 0 0 0 0 0 0 0 0 0 0 0 0 0 0 0 0 0 0 0 0 0 0 0
0 0 0 0 0 0 0 0 0 0 0 0 0 0 0 0 0 0 0 0 0 0 0 0 0 0 0 0 0 0 0 0 0 0 0 0 0 0 0 0 0 0 0 0
0 0 0 0 0 0 0 0 0 0 0 0 0 0 0 0 0 0 0 0 0 0 0 0 0 0 0 0 0 0 0 0 0 0 0 0 0 0 0 0 0 0 0 0
0 0 0 0 0 0 0 0 0 0 0 0 0 0 0 0 0 0 0 0 0 0 0 0 0 0 0 0 0 0 0 0 0 0 0 0 0 0 0 0 0 0 0 0
0 0 0 0 0 0 0 0 0 0 0 0 0 0 0 0 0 0 0 0 0 0 0 0 0 0 0 0 0 0 0 0 0 0 0 0 0 0 0 0 0 0 0 0
0 0 0 0 0 0 0 0 0 0 0 0 0 0 0 0 0 0 0 0 0 0 0 0 0 0 0 0 0 0 0 0 0 0 0 0 0 0 0 0 0 0 0 0
0 0 0 0 0 0 0 0 0 0 0 0 0 0 0 0 0 0 0 0 0 0 0 0 0 0 0 0 0 0 0 0 0 0 0 0 0 0 0 0 0 0 0 0
0 0 0 0 0 0 0 0 0 0 0 0 0 0 0 0 0 0 0 0 0 0 0 0 0 0 0 0 0 0 0 0 0 0 0 0 0 0 0 0 0 0 0 0
0 0 0 0 0 0 0 0 0 0 0 0 0 0 0 0 0 0 0 0 0 0 0 0 0 0 0 0 0 0 0 0 0 0 0 0 0 0 0 0 0 0 0 0
0 0 0 0 0 0 0 0 0 0 0 0 0 0 0 0 0 0 0 0 0 0 0 0 0 0 0 0 0 0 0 0 0 0 0 0 0 0 0 0 0 0 0 0
0 0 0 0 0 0 0 0 0 0 0 0 0 0 0 0 0 0 0 0 0 0 0 0 0 0 0 0 0 0 0 0 0 0 0 0 0 0 0 0 0 0 0 0
0 0 0 0 0 0 0 0 0 0 0 0 0 0 0 0 0 0 0 0 0 0 0 0 0 0 0 0 0 0 0 0 0 0 0 0 0 0 0 0 0 0 0 0
0 0 0 0 0 0 0 0 0 0 0 0 0 0 0 0 0 0 0 0 0 0 0 0 0 0 0 0 0 0 0 0 0 0 0 0 0 0 0 0 0 0 0 0
0 0 0 0 0 0 0 0 0 0 0 0 0 0 0 0 0 0 0 0 0 0 0 0 0 0 0 0 0 0 0 0 0 0 0 0 0 0 0 0 0 0 0 0
Wind_Speed
2 3 3 7 7 6 4 4 8 9 4 1 1 3 5 5 5 4 4 4 5 3 4 4 3 1 3 5 7 7 7 5 5 4 4 4 3 3 2 2 3 3 3 4
3 4 9 6 4 5 5 5 6 6 1 2 4 4 5 7 6 5 5 5 5 5 6 7 6 5 3 4 4 5 5 6 5 4 3 2 3 2 2 2 2 2 3 3
6 8 3 2 3 3 5 6 6 5 2 2 4 3 4 6 7 8 7 7 7 6 6 7 7 6 6 5 4 4 4 4 4 5 3 3 3 3 2 3 3 5 5 5
6 7 3 3 4 3 6 7 6 4 1 2 2 1 0 4 6 8 8 8 8 8 8 8 8 8 7 6 5 5 5 4 3 4 4 5 5 4 3 3 5 7 8 8
6 3 3 5 6 4 7 4 3 2 3 1 1 3 2 2 4 6 7 8 9 9 9 9 9 8 8 8 7 7 7 6 4 5 6 6 5 5 5 6 9 8 8 10
7 4 4 5 4 3 3 3 4 4 4 1 1 3 2 1 3 5 5 7 8 9 10 10 10 10 10 10 9 8 8 8 7 9 9 9 9 8 8 8 8 7 7 8
6 5 3 2 2 2 3 5 4 4 3 2 1 3 1 2 4 7 7 7 8 9 9 10 11 11 11 11 10 10 10 10 10 12 12 11 11 10 10 8 8 8 7 7
2 7 4 1 3 2 1 6 6 3 3 2 2 2 2 4 6 8 8 8 9 9 9 10 11 10 10 11 11 11 12 12 11 13 13 12 12 9 8 10 9 9 8 8
5 6 4 3 2 3 2 2 4 6 3 1 0 2 2 5 7 8 9 9 9 9 9 10 11 11 11 12 12 12 13 13 13 13 13 13 12 12 13 12 11 9 9 9
6 4 5 4 1 1 2 5 4 5 4 1 1 4 5 8 8 8 8 9 9 9 9 10 10 10 10 11 11 12 13 14 14 14 13 12 13 13 13 12 13 12 11 10
4 3 5 4 1 1 1 2 4 4 4 5 3 4 2 7 9 10 9 9 9 9 9 9 9 10 10 11 11 12 13 14 14 14 14 14 13 13 13 13 12 11 10 11
3 4 2 4 3 1 1 3 5 4 3 3 3 3 2 6 9 11 11 10 9 9 9 9 9 9 10 11 11 11 12 13 13 13 13 13 12 12 13 12 11 10 11 10
6 5 2 5 5 4 2 1 2 4 4 4 4 2 4 9 10 10 11 11 10 9 9 9 9 9 9 10 10 11 11 12 11 11 13 13 12 12 12 11 10 10 10 10
6 4 5 5 5 2 2 1 2 3 3 4 4 6 7 9 11 10 10 10 10 9 9 9 9 8 9 9 9 10 10 10 10 11 11 12 10 10 10 9 9 9 9 9
5 3 2 2 3 1 1 2 0 2 3 4 4 7 9 10 11 11 11 11 11 10 9 9 9 8 8 9 9 9 9 8 9 10 11 10 8 8 8 8 8 8 8 8
3 3 1 2 1 0 1 3 4 3 2 3 6 4 6 9 9 10 11 11 12 11 10 10 9 9 8 8 8 8 8 7 7 9 9 8 7 7 7 7 7 7 7 6
3 5 3 1 2 2 2 3 1 2 2 3 4 5 11 11 11 11 12 11 12 12 11 10 9 8 7 7 7 7 7 7 7 7 7 6 6 6 5 6 6 6 5 5
7 5 3 2 1 2 4 2 3 4 3 2 4 8 9 10 8 7 8 10 12 11 11 9 9 8 6 6 6 6 7 7 7 6 6 5 5 5 5 5 5 4 3 4
5 7 4 3 1 3 2 0 2 3 1 2 8 11 10 12 9 6 6 9 10 10 10 8 8 7 7 7 6 7 7 6 6 5 4 4 4 5 5 5 4 3 3 3
5 5 5 4 2 4 4 1 3 4 0 4 9 12 12 9 6 5 8 10 11 11 9 9 8 7 7 6 6 7 6 5 5 4 4 3 4 4 4 3 3 2 3 3
3 4 3 3 2 5 2 0 2 1 5 6 9 11 8 4 5 9 11 10 11 11 10 9 8 7 6 6 6 7 6 4 3 3 4 4 3 3 3 3 3 3 4 5
5 4 3 3 2 5 2 2 3 4 3 8 9 8 8 10 12 12 12 12 12 11 10 9 8 7 5 6 7 6 4 3 3 4 4 4 3 3 3 4 4 4 4 5
3 5 5 5 4 3 2 1 2 4 7 6 8 10 12 13 13 12 11 11 11 10 9 7 8 7 5 5 6 6 3 3 4 4 4 3 4 4 3 4 4 4 3 3
2 3 4 3 1 2 3 3 4 5 6 9 11 12 13 13 13 12 11 10 10 9 8 7 8 7 5 4 4 4 3 3 4 4 3 3 3 4 4 4 3 3 2 2
5 4 4 3 2 3 3 4 6 9 11 13 11 10 12 15 14 13 11 10 9 8 6 6 7 6 5 4 4 3 3 4 4 3 3 3 3 3 4 4 3 2 1 1
5 7 8 7 8 7 5 5 7 10 10 12 13 11 10 12 13 12 10 8 8 8 6 6 6 5 5 4 3 3 3 4 4 3 2 2 2 2 3 3 2 3 2 2
Wind_Direction
56 73 250 240 209 213 231 251 272 274 271 32 64 53 23 32 51 60 62 67 69 48 32 35 37 87 131 136 142 149 152 152 151 163 171 177 191 176 163 166 158 166 167 164
25 269 242 235 217 205 219 255 269 288 323 129 106 79 54 49 61 64 61 53 53 43 30 35 39 45 80 118 127 132 148 146 151 168 178 163 141 135 133 106 89 91 110 124
209 245 256 231 262 245 237 213 239 251 347 79 118 67 69 62 62 58 51 47 45 48 40 35 40 45 55 65 82 109 117 125 143 151 136 113 111 110 113 91 75 56 63 72
234 259 251 259 262 211 269 235 221 224 166 250 161 159 65 89 68 56 47 42 41 44 47 46 44 42 45 53 67 77 79 87 106 132 138 144 148 146 130 110 89 65 58 60
245 240 237 252 251 204 236 254 220 201 170 121 36 133 247 129 90 66 53 48 45 44 47 48 46 43 40 41 52 63 68 60 60 88 113 111 102 107 105 99 88 75 65 60
250 251 220 233 258 224 238 54 55 54 82 71 260 144 226 182 136 108 78 59 52 50 49 48 45 44 42 41 47 57 65 59 60 68 75 89 100 103 104 97 93 83 72 62
307 301 264 233 294 350 85 86 30 6 26 254 291 117 193 92 109 116 105 79 63 55 53 51 46 43 43 42 47 55 65 62 62 69 70 76 86 94 95 96 90 85 75 65
279 295 279 236 203 222 196 142 157 193 210 271 4 118 134 107 104 107 102 91 76 63 57 58 53 49 46 46 48 55 62 63 65 71 72 72 75 79 79 79 82 80 77 72
204 263 287 272 237 169 166 188 167 137 142 110 178 138 145 139 124 116 106 93 81 70 62 60 58 55 52 51 50 55 66 67 64 69 74 73 76 79 80 79 78 79 79 79
175 252 292 304 36 40 173 151 106 122 147 190 240 197 192 175 156 135 117 103 90 79 69 64 60 59 57 57 56 58 64 69 68 68 71 74 73 77 79 80 77 75 73 74
144 183 306 351 18 274 107 115 112 113 146 152 203 249 205 176 160 143 125 109 99 91 81 72 67 61 61 60 59 61 64 68 69 71 74 75 73 75 77 76 75 75 74 71
131 125 282 287 277 273 207 168 148 150 191 164 164 249 25 132 132 129 121 113 104 96 90 84 76 70 66 65 65 66 67 70 70 73 76 76 75 75 76 75 73 73 73 70
140 111 32 343 338 357 27 45 129 124 121 152 161 206 97 114 121 124 124 122 115 108 101 92 83 76 73 71 71 70 69 72 74 78 81 79 76 76 76 75 72 71 71 69
117 115 161 204 239 266 312 329 153 129 145 183 194 163 155 144 136 131 127 123 120 115 109 101 92 85 79 76 75 75 73 74 79 81 82 80 77 77 76 74 71 68 70 69
105 127 194 246 269 247 262 325 58 153 183 182 188 165 169 155 143 136 131 128 123 118 112 107 104 96 90 86 82 79 78 77 81 84 82 79 77 76 75 73 69 67 66 67
97 128 98 345 333 328 29 18 41 63 82 112 119 120 129 129 128 133 136 136 130 125 119 114 110 107 103 100 97 90 85 82 84 85 84 82 80 77 74 74 73 70 66 62
122 126 119 268 306 26 321 319 23 79 64 139 162 155 140 140 144 146 146 142 137 133 129 125 120 115 111 108 107 103 99 92 87 85 84 82 81 77 73 74 72 68 66 65
129 114 119 122 66 249 267 317 130 107 49 69 117 134 140 131 117 114 131 137 136 134 130 126 122 117 113 108 106 104 100 95 90 85 82 78 78 76 70 68 65 63 68 71
129 128 116 115 146 292 292 199 146 132 59 113 131 128 119 117 103 93 107 123 126 126 123 121 122 120 117 113 111 104 97 95 94 89 83 80 83 81 73 67 59 55 66 68
76 96 110 125 153 242 253 292 138 102 294 160 144 140 139 133 131 141 129 120 117 117 119 120 117 115 115 114 112 106 104 101 101 100 94 84 81 81 75 68 59 51 68 74
81 66 103 142 201 263 275 215 118 161 242 154 146 145 139 124 131 132 126 118 120 122 123 121 119 119 122 124 115 110 109 112 114 106 94 79 74 80 81 71 59 70 81 79
155 143 156 139 187 258 342 118 170 208 118 121 127 127 116 114 118 123 124 125 126 124 123 122 122 120 121 125 120 117 121 123 107 99 88 75 64 69 87 86 74 72 84 83
151 174 169 171 201 255 342 74 80 122 118 118 124 124 126 126 129 127 126 128 127 128 126 124 125 121 119 126 127 130 145 129 111 99 89 77 71 67 74 86 86 73 70 80
144 124 107 102 49 41 50 62 68 92 109 119 126 129 130 129 131 128 129 127 125 124 126 126 124 124 128 137 137 145 145 129 119 112 99 87 85 74 65 68 76 84 84 85
168 129 107 111 141 99 49 80 102 97 106 111 112 119 130 131 131 131 129 128 127 124 122 127 131 136 144 145 141 140 134 129 122 118 107 97 95 99 86 72 65 80 78 175
181 163 162 193 187 157 155 134 122 115 117 122 118 113 121 129 129 127 126 124 127 128 127 129 132 138 145 145 150 152 146 137 133 126 115 112 114 110 108 100 67 44 57 66